Location: Newark
(49.8969°N, 3.3422°E)
Time: 07:25:18
(UTC+00:00)

A-11 Canister half - Pass Details

Date: 23 January 2020
Orbit: 1517 x 1683 km, 47.2° (Epoch: 20 February)

Event Time Altitude Azimuth Distance (km) Brightness Sun altitude
Exits shadow 03:47:51 73° 175° (S) 1,575 8.8 -35.7°
Drops below altitude 10° 03:56:51 10° 107° (ESE) 3,705 11.7 -34.3°
Sets 03:59:55 0° 106° (ESE) 4,702 12.4 -33.8°
